Find Starlink 2395

NORAD ID: 47814 Int'l Des: 2021-018 Owner: SPXS Country: US Constellation: starlink operational
LEOCIRCULAR

現在のビュー

3D地球を読み込み中...

About Starlink 2395

Starlink 2395 (NORAD 47814) is a starlink constellation satellite (v1.0) launched Mar 11, 2021 by SPXS of US. It operates in LEO, CIRCULAR orbit with a mass of 260.00 kg.

Starlink 2395について

説明を読み込み中...

次回通過

Passes for default location (London). Set your location on the main map for personalized predictions.

高度履歴

Loading altitude history...

軌道要素

1 47814U 21018AD 26167.21628633 .00001466 00000-0 59009-4 0 9993
2 47814 53.1581 144.4647 0001201 78.8291 281.2845 15.31695443291887
Epoch: Jun 16, 2026 • Age: 10 hours

現在のステータス

高度 471.8 km
速度 7.63 km/s
衛星直下点 28.14°N, 165.94°E
打ち上げ日 Mar 11, 2021
運用期間 5.2 years
タイプ internet

技術仕様

分類 Payload
質量 260.00 kg
乾燥質量 248.00 kg
総質量 260.00 kg
長さ 0.20 m
直径 2.80 m
スパン 9.00 m
形状 Box + pan
製造者 SPXS
バスタイプ Starlink
フェーズステータス In Orbit
所有者/国 SPXS/US

Most Searched